Regional Weather Roundup
Issued by NWS Midland/Odessa, TX

Skip options and go directly to product.
Home | Oldest Version | Next Version | Current Version | All | Text Only | Save Text | Print | Product List | Glossary On

Skip product version selection by date and time.   
861
ASUS44 KMAF 300010
RWRMAF
MIDLAND AREA WEATHER ROUNDUP
NATIONAL WEATHER SERVICE MIDLAND TX
700 PM CDT WED JUN 29 2016

...IN SOUTHWEST TEXAS AND SOUTHEAST NEW MEXICO...

CITY           SKY/WX    TMP DP  RH WIND       PRES   REMARKS
ALPINE         SUNNY     85  56  37 SE12G18   30.17F
ANDREWS        FAIR      90  54  28 SE12      30.06S
ARTESIA        MOSUNNY   93  55  27 SE15      30.03S
BIG SPRING     SUNNY     90  59  35 E10       30.05S
CARLSBAD       SUNNY     92  53  26 SE14      30.01F
DRYDEN           N/A     94  58  29 E10       29.97F
FORT STOCKTON  MOSUNNY   91  57  31 E14       30.03F
GUAD PASS      MOSUNNY   81  52  36 E14       30.20F
HOBBS          MOSUNNY   91  48  22 SE10      30.07F
MARFA          SUNNY    N/A N/A N/A E8        30.17F
MIDLAND AIRPK  SUNNY     92  56  29 SE8       30.04F
MIDLAND INTL   SUNNY     92  57  30 VRB6      30.03F
ODESSA         SUNNY     91  53  27 SE7       30.05F
PECOS          SUNNY     94  54  25 E17G23    29.99F
PRESIDIO       FAIR      92  56  29 NE14G21   29.99S
SEMINOLE       MOSUNNY   91  51  25 SE10      30.07S
SNYDER           N/A     90  63  40 E8        30.04S
WINK           SUNNY     92  58  31 SE12      30.00F
$$
...OTHER STATIONS IN TEXAS...

CITY           SKY/WX    TMP DP  RH WIND       PRES   REMARKS
ABILENE        CLOUDY    90  64  42 E12       30.01S
AMARILLO       CLOUDY    87  59  38 SE22      30.06S
AUSTIN         MOSUNNY   92  69  47 E7        29.92S
BROWNSVILLE    MOSUNNY   87  76  69 E10       29.91S
CORPUS CHRISTI CLOUDY    86  70  58 S7        29.89F
DALLAS FTW     MOSUNNY   91  68  46 SE9       29.96S
DEL RIO        SUNNY     97  62  31 CALM      29.89F
EL PASO        MOSUNNY   93  45  19 E10G17    30.02F
HOUSTON INT    MOSUNNY   90  74  59 N9        29.90S
LUBBOCK        MOSUNNY   92  52  25 SE5       30.05F
SAN ANGELO     SUNNY     90  66  45 E5        29.99F
SAN ANTONIO    MOSUNNY   92  65  40 E13       29.93S
WACO           MOSUNNY   92  67  43 E12       29.94S
WICHITA FALLS  NOT AVBL
$$
...OTHER LOCATIONS IN NEW MEXICO...

CITY           SKY/WX    TMP DP  RH WIND       PRES   REMARKS
ALAMAGORDO     MOSUNNY   91  48  22 S12       30.06S
ALBUQUERQUE    MOSUNNY   89  41  18 VRB6      30.13F
CANNON AFB     NOT AVBL
CLOVIS         SUNNY     88  54  31 S7        30.09S
HOLLOMAN AFB   CLOUDY    93  48  21 W7        30.02F
ROSWELL        SUNNY     95  46  18 E8        30.02F
RUIDOSO        LGT RAIN  82  41  23 SE14      30.29S
SANTA FE       CLOUDY    88  38  17 VRB7      30.22S
TRUTH OR CONSE PTSUNNY   90  48  23 E9        30.08F
TUCUMCARI      SUNNY     96  43  16 SW10      30.03F
$$

USA.gov is the U.S. government's official web portal to all federal, state and local government web resources and services.